Probability
13 14 15 14 13 12 10 8 6 4 4 5 7 7 4 2 2 1 0 0 0 0 0 0 0 0 0 0 0 1 2 2 1 0 0 0 0 0 0 0 0 0 0
13 13 13 14 13 13 11 8 5 4 4 5 7 7 5 2 1 1 0 0 0 0 1 1 0 0 0 1 1 1 2 2 2 1 1 0 0 0 0 0 0 0 0
12 12 12 13 14 14 11 8 6 5 5 7 8 9 8 5 3 1 1 0 0 0 1 2 1 1 1 2 2 1 2 3 3 3 2 1 0 0 0 0 0 0 0
9 10 12 14 14 13 11 10 8 6 7 9 10 11 11 9 6 4 3 2 1 1 2 3 3 3 3 3 2 2 3 4 4 4 3 1 0 0 0 0 1 1 0
5 7 10 12 12 11 12 12 11 8 7 9 10 11 11 10 10 9 7 5 4 3 3 4 4 5 4 3 3 3 3 4 4 5 4 3 1 1 0 0 1 1 1
5 7 9 9 9 10 11 12 11 10 8 8 9 9 9 9 11 12 11 9 7 4 4 5 5 4 4 4 3 3 3 3 3 4 5 5 4 2 1 1 2 1 1
6 7 8 8 7 8 9 9 10 10 9 9 8 7 6 8 9 11 11 10 7 6 6 6 5 5 5 4 3 3 4 3 3 3 4 6 5 4 3 3 4 3 2
6 7 7 6 6 6 6 7 8 8 8 8 7 6 5 5 6 7 8 8 8 8 7 6 5 5 5 5 4 4 5 4 3 3 4 5 5 4 3 4 6 5 4
4 4 4 3 4 5 5 5 6 7 8 9 8 6 6 5 4 4 5 6 7 8 7 5 5 5 6 6 6 5 5 5 4 3 3 4 4 3 4 5 6 6 5
3 2 1 1 2 3 4 4 4 6 8 9 9 9 9 8 6 4 4 4 5 5 5 4 5 6 7 8 8 5 4 5 5 4 3 3 3 3 3 4 4 5 5
3 2 0 0 1 2 2 3 3 5 7 8 9 10 10 9 8 6 6 6 5 5 4 5 7 7 7 8 8 4 3 3 3 3 3 2 2 2 2 3 3 4 4
4 3 2 2 2 3 3 4 4 5 6 7 8 8 7 7 7 7 7 7 7 7 6 7 7 7 6 6 4 2 1 1 1 2 1 1 1 1 1 1 2 3 3
6 6 6 6 5 5 6 6 6 6 6 7 6 6 6 6 7 7 7 7 7 6 6 7 7 6 4 3 1 0 0 0 0 0 0 0 0 0 0 0 1 1 1
7 9 10 10 7 6 7 8 8 6 6 6 5 5 6 7 7 7 6 5 4 4 4 5 5 4 4 4 1 0 0 0 0 0 0 0 0 0 0 0 0 0 0
8 10 11 11 8 7 7 8 7 6 6 5 4 4 5 5 6 6 6 6 4 3 2 2 3 4 5 5 2 1 1 0 0 0 0 0 0 0 0 0 0 0 0
10 10 10 9 8 8 8 7 5 5 5 4 4 4 4 4 4 5 6 7 6 3 2 2 3 5 7 6 3 2 2 1 1 0 0 0 0 0 0 0 0 0 0
12 12 10 8 7 7 7 6 5 4 4 4 4 4 3 4 4 5 5 7 7 4 1 2 3 5 7 7 5 4 3 2 1 0 0 0 0 0 0 0 0 0 0
13 12 9 7 7 7 7 6 6 5 4 4 4 4 3 3 4 4 5 5 4 3 2 2 3 5 6 6 7 5 3 2 1 0 0 0 0 0 0 0 0 0 0
9 9 8 6 6 7 7 6 5 4 4 4 4 4 4 4 4 4 4 3 3 2 3 3 4 6 6 6 5 4 3 3 2 1 0 0 0 0 0 0 0 0 0
5 5 5 4 4 5 5 4 5 4 4 3 4 4 4 4 4 3 3 3 3 3 5 6 6 7 6 5 4 3 3 4 3 1 1 1 1 0 0 0 0 0 0
1 2 3 3 3 3 3 3 4 4 3 3 3 3 3 3 2 1 2 3 4 5 6 7 6 5 4 4 3 3 3 3 3 3 3 3 2 1 1 1 0 0 0
2 2 3 3 3 3 2 3 3 3 3 3 3 2 1 1 0 0 0 1 2 4 5 5 4 2 2 2 3 3 3 3 4 5 5 4 3 3 2 2 1 0 0
5 5 4 3 3 1 1 1 2 2 2 3 3 2 1 0 0 0 0 0 1 1 2 2 1 0 0 1 2 3 3 3 4 5 4 3 3 3 3 2 1 0 0
7 7 6 4 3 1 0 0 1 1 1 2 2 3 2 1 0 0 0 0 0 0 0 0 0 0 0 0 1 2 3 3 3 4 3 3 3 3 3 2 1 0 0
7 7 6 4 4 3 1 0 0 1 1 2 3 4 3 2 1 0 0 0 0 0 0 0 0 0 0 0 0 1 1 2 2 3 3 3 3 3 3 3 1 1 0
7 7 5 4 5 4 1 0 0 1 2 3 4 4 2 1 1 0 0 0 0 0 0 0 0 0 0 0 0 0 0 1 1 2 3 3 3 3 3 3 2 2 1
Wind_Speed
2 2 2 2 2 2 3 3 2 2 3 3 3 3 3 2 2 2 4 7 5 4 5 5 5 5 6 7 7 6 7 8 8 8 8 8 7 7 7 7 7 7 7
2 2 2 2 2 2 2 2 2 2 3 2 2 2 3 3 2 2 2 6 7 5 4 5 5 6 6 7 7 7 7 8 8 8 8 8 7 7 8 8 7 7 7
2 3 2 3 2 2 2 2 3 3 3 3 3 2 3 3 3 3 3 3 5 7 6 5 5 5 5 6 7 8 8 8 9 9 9 9 8 8 7 7 7 8 8
3 3 3 2 2 3 2 2 3 2 2 2 2 2 2 2 3 4 3 3 2 3 7 7 5 5 5 6 6 7 8 9 9 9 9 9 9 8 8 7 7 8 8
4 4 3 2 3 3 3 3 2 2 2 2 2 2 2 2 2 3 3 3 3 3 3 7 7 6 6 6 6 6 7 8 9 9 9 9 9 9 8 8 8 8 8
4 4 3 4 4 3 3 2 2 2 2 2 2 1 1 2 2 2 3 3 3 4 3 3 5 7 8 7 6 6 6 7 8 9 9 9 9 9 8 9 9 8 9
3 3 3 4 4 3 4 4 3 4 2 2 2 2 3 3 2 2 2 2 3 3 3 3 3 2 5 9 7 6 6 6 7 8 8 9 9 9 9 9 9 9 9
3 4 3 4 4 3 4 4 3 3 2 2 2 2 3 4 3 2 2 2 2 3 3 3 3 3 2 3 6 7 5 5 6 7 8 8 9 9 10 10 10 10 10
3 3 4 3 3 4 4 4 4 4 3 2 1 2 2 1 2 3 2 2 2 2 2 2 3 3 3 2 3 6 5 4 6 7 7 8 8 9 9 10 10 10 10
2 3 4 3 3 3 4 4 4 3 3 2 2 1 2 1 1 2 3 2 2 2 1 1 2 2 2 2 2 3 4 3 4 5 6 7 7 7 8 10 10 10 11
2 3 3 4 3 3 4 3 4 4 3 2 1 1 1 1 2 2 1 2 2 1 1 1 1 1 1 1 1 3 3 3 3 3 4 5 6 7 8 8 9 10 10
2 3 3 4 4 3 4 4 4 5 3 2 1 1 1 1 1 1 1 2 1 1 1 1 1 1 1 1 2 5 3 2 2 2 3 3 4 5 5 6 7 8 9
3 3 3 3 3 3 3 3 3 3 3 3 2 1 1 1 1 1 1 1 1 1 2 2 1 1 1 1 2 3 4 3 2 2 2 3 4 5 6 6 6 7 7
2 3 3 3 3 3 3 3 3 3 3 3 2 1 1 1 1 1 2 2 2 2 2 1 1 0 1 0 2 3 3 4 3 2 3 4 5 5 6 6 5 5 5
3 4 4 3 3 3 2 3 2 3 2 2 2 3 2 1 1 1 2 2 3 3 1 1 1 1 1 1 2 1 1 4 4 3 3 3 5 5 5 5 5 5 5
3 3 4 4 4 3 3 3 3 3 2 2 2 2 1 1 1 2 2 2 2 3 2 0 1 1 0 0 2 1 1 5 4 3 3 2 3 3 4 4 4 4 5
3 3 4 4 4 4 3 3 3 3 3 3 3 3 3 2 2 2 2 2 2 2 2 2 1 1 1 1 0 1 2 2 2 5 3 2 2 2 2 2 3 3 4
3 3 4 4 4 3 3 3 3 3 3 3 2 2 2 2 2 2 2 2 2 2 3 2 2 1 1 1 1 2 2 2 1 5 5 3 2 2 1 1 2 2 4
3 3 3 3 3 3 3 3 3 2 2 2 2 2 2 2 2 2 2 2 2 2 3 3 2 1 1 1 1 2 1 2 3 4 7 6 4 3 2 2 3 4 4
3 3 3 3 3 3 2 2 3 2 2 2 1 1 1 1 2 2 2 2 2 2 2 3 2 1 1 1 2 2 2 2 2 2 1 3 5 6 4 3 3 4 4
3 3 3 3 3 2 2 1 2 3 2 2 2 1 1 2 3 1 2 1 2 2 3 3 2 2 1 1 2 3 2 2 2 2 2 2 3 3 4 5 4 4 4
3 3 3 3 2 3 4 3 1 2 2 1 1 1 2 3 3 2 1 2 2 2 2 2 2 2 2 3 2 3 3 3 2 1 3 2 2 2 2 2 3 3 3
3 3 2 3 3 3 4 2 1 0 1 1 1 1 1 2 1 1 2 3 2 1 2 3 3 3 3 3 4 4 3 4 3 2 3 3 2 3 2 2 6 4 4
2 2 2 2 2 3 3 2 1 2 1 1 1 1 1 1 1 1 1 1 1 2 2 3 2 3 3 3 4 5 4 4 4 3 3 4 3 3 2 1 7 6 5
2 2 2 2 2 2 3 2 3 3 2 2 2 2 2 2 2 1 3 2 2 2 3 2 1 2 2 3 4 4 4 4 4 3 2 4 3 3 3 3 4 8 7
2 2 2 2 2 2 3 3 3 3 2 2 2 2 2 1 1 1 4 3 3 2 2 2 4 5 5 5 5 5 5 5 4 3 1 3 4 4 4 3 2 3 5
Wind_Direction
194 190 190 200 215 186 188 200 197 190 211 203 209 195 194 189 191 191 137 143 156 164 167 170 179 190 190 185 186 185 182 179 176 179 180 180 179 179 180 179 178 179 181
196 206 200 203 208 199 192 202 190 203 218 209 209 200 210 201 184 199 179 157 162 166 174 174 177 185 189 187 187 185 185 186 184 181 181 182 182 184 188 186 186 184 181
196 221 211 209 196 181 175 195 194 207 210 203 196 203 203 200 194 196 195 186 171 168 172 177 186 186 190 192 192 188 188 190 187 185 186 186 185 187 188 186 188 186 186
204 221 220 209 185 195 183 179 204 204 195 202 195 204 195 182 194 198 199 194 189 177 170 173 181 182 190 195 197 195 194 193 191 189 187 188 189 190 193 192 193 194 194
212 220 216 189 195 196 188 196 177 209 195 194 192 179 190 189 188 197 196 199 189 199 187 162 176 179 182 189 196 198 197 197 197 196 193 194 194 193 197 198 196 198 201
210 218 202 185 199 193 187 175 171 188 211 204 208 146 159 167 176 177 196 183 188 199 200 187 184 175 176 180 191 196 197 201 201 201 201 201 200 199 201 203 203 204 203
201 212 203 178 202 190 183 178 186 180 198 193 194 173 160 157 153 168 190 183 177 188 188 195 206 193 174 176 184 194 204 211 208 207 207 208 205 203 205 206 208 210 208
202 193 188 192 192 181 180 184 195 206 195 200 221 209 185 166 170 169 186 192 195 197 194 190 193 195 216 188 156 179 203 218 218 215 214 211 207 205 207 208 210 212 212
192 185 183 195 193 198 178 186 196 201 200 194 232 261 236 179 158 158 182 186 199 207 208 198 194 190 198 197 173 172 185 215 224 223 220 215 214 213 212 212 214 215 215
184 180 187 188 199 197 178 191 184 196 197 197 179 266 326 15 249 169 168 160 184 199 200 220 195 189 197 204 162 130 165 202 224 230 227 216 214 219 222 220 219 219 219
182 186 186 183 190 195 182 194 184 201 199 206 193 184 169 183 241 250 190 178 184 172 176 192 214 214 197 222 211 120 144 185 208 225 227 223 223 226 230 228 226 225 225
173 183 188 186 190 186 181 190 193 192 200 200 225 218 214 224 217 238 227 212 195 161 175 196 225 208 196 197 140 103 129 160 180 206 224 233 235 239 242 240 238 235 234
172 179 188 187 184 175 173 183 188 195 192 189 202 214 228 261 272 280 261 240 233 190 186 213 208 224 220 197 132 132 140 145 165 198 217 229 238 241 242 244 247 247 245
169 156 170 176 172 167 171 175 179 180 180 183 189 192 220 227 234 255 268 260 245 225 193 197 190 183 291 224 87 205 153 157 178 195 213 226 236 243 244 241 239 242 247
152 157 169 169 165 167 174 172 169 173 170 179 177 177 201 188 226 255 259 260 267 269 248 160 208 119 306 101 100 239 216 144 177 193 207 226 235 238 240 237 239 238 238
148 158 167 164 163 164 165 169 164 161 170 176 179 169 190 202 209 235 243 250 265 276 281 281 200 148 45 327 114 290 312 146 170 182 200 224 237 233 229 232 237 243 244
142 150 152 151 151 153 158 162 170 164 176 181 185 180 191 215 221 237 244 247 251 257 259 286 298 123 182 291 9 291 269 251 156 156 177 196 211 223 232 240 247 253 252
132 137 146 147 149 149 155 162 170 170 183 190 188 192 197 193 198 230 233 241 245 253 255 260 271 252 240 246 240 261 264 266 255 144 166 176 183 187 207 232 240 244 244
126 129 133 134 133 135 150 167 171 177 185 188 195 205 205 203 210 215 226 231 233 234 236 245 253 261 255 250 246 246 254 270 264 159 168 170 171 177 191 221 239 244 248
130 132 134 134 133 135 146 153 151 152 157 159 167 185 208 222 220 221 226 226 226 237 230 242 252 244 245 247 260 262 244 226 258 250 180 174 175 189 198 214 235 247 246
138 135 134 133 133 133 102 106 148 146 153 162 161 169 124 59 34 349 305 267 235 238 233 229 235 243 245 254 261 266 269 264 230 261 254 219 198 212 205 208 220 236 239
130 131 128 122 116 93 71 45 347 134 148 159 158 164 159 157 136 138 59 19 330 268 259 254 250 264 271 267 268 272 276 270 259 223 262 252 236 242 231 223 142 166 212
138 133 134 132 119 99 98 93 351 276 160 155 166 198 230 106 166 181 159 180 203 250 275 273 271 276 277 281 282 272 270 278 288 300 276 269 250 247 242 144 139 167 191
135 140 146 146 148 125 122 139 252 214 199 184 188 183 210 211 71 334 252 210 221 191 219 240 270 277 286 297 277 273 274 257 253 250 265 270 268 263 257 197 157 176 194
150 163 164 166 172 152 141 168 248 212 188 206 211 190 214 207 84 317 248 238 242 214 176 183 286 295 322 303 289 274 263 259 261 241 236 273 278 273 259 242 175 180 195
177 177 159 171 182 175 150 177 239 235 204 206 194 184 150 187 116 254 248 247 247 253 266 208 212 221 228 218 226 256 273 273 276 274 232 271 279 279 272 252 229 198 208